Lahr, Germany

6:00 PM CEST on March 30, 2017 (GMT +0200)
Lahr

Weather History for EDTL - September, 2013

Change the Weather History Date:

Sunday, September 22, 2013

  Actual Average (LFST) Record (LFST)
Temperature  
Mean Temperature 56 °F -  
Max Temperature 69 °F 67 °F 86 °F (2003)
Min Temperature 44 °F 48 °F 42 °F (1997)
Degree Days  
Heating Degree Days 8    
Growing Degree Days 6 (Base 50)    
Moisture  
Dew Point 52 °F    
Average Humidity 80    
Maximum Humidity 100    
Minimum Humidity 44    
Precipitation  
Precipitation 0.00 in - - ()
Sea Level Pressure  
Sea Level Pressure 30.37 in    
Wind  
Wind Speed 2 mph ()    
Max Wind Speed 7 mph    
Max Gust Speed -    
Visibility 6.0 miles    
Events Fog    
Averages and records for this station are not official NWS values.
T = Trace of Precipitation, MM = Missing Value Source: Averaged Metar Reports

Daily Weather History Graph

Daily Weather History Graph

Search for Another Location

Airport or City:

Trip Planner

Search our weather history database for the weather conditions in past years. The results will help you decide how hot, cold, wet, or windy it might be!

Date:

Astronomy

Sep. 22, 2013 Rise Set
Actual Time 7:15 AM CEST 7:26 PM CEST
Civil Twilight 6:44 AM CEST 7:57 PM CEST
Nautical Twilight 6:07 AM CEST 8:34 PM CEST
Astronomical Twilight 5:29 AM CEST 9:12 PM CEST
Moon 8:46 PM CEST (9/22) 10:36 AM CEST (9/22)
Length of Visible Light 13h 13m
Length of Day
12h 11m
Waning Gibbous, 90% of the Moon is Illuminated
Sep 22
Waning Gibbous
Sep 27
Last Quarter
Oct 5
New
Oct 12
First Quarter
Oct 19
Full

Hourly Weather History & Observations

Time (CEST) Temp. Dew Point Humidity Pressure Visibility Wind Dir Wind Speed Gust Speed Precip Events Conditions
12:00 AM 50 °F 50 °F 98% 30.37 in 3 mi NNW 2.2 mph - - Fog Fog
1:00 AM 50 °F 50 °F 100% 30.38 in 3 mi WNW 2.2 mph - - Fog Fog
2:00 AM 48 °F 48 °F 100% 30.38 in 5 mi WNW 2.2 mph - - Fog Fog
3:00 AM 48 °F 48 °F 99% 30.38 in 3 mi North 2.2 mph - - Fog Fog
4:00 AM 47 °F 47 °F 99% 30.38 in 1 mi North 2.2 mph - - Fog Fog
6:00 AM 46 °F 46 °F 100% 30.38 in 0 mi NNW 2.2 mph - - Fog Partial Fog
7:00 AM 45 °F 45 °F 98% 30.39 in 0 mi NNE 2.2 mph - - Fog Partial Fog
8:00 AM 45 °F 45 °F 100% 30.40 in 0 mi ENE 2.2 mph - - Fog Partial Fog
9:00 AM 49 °F 49 °F 100% 30.40 in 2 mi North 2.2 mph - - Fog Light Fog
9:20 AM 53.6 °F 53.6 °F 100% 30.39 in 2.5 mi Variable 1.2 mph - N/A   Mist
9:50 AM 53.6 °F 53.6 °F 100% 30.39 in 2.5 mi West 2.3 mph - N/A   Partly Cloudy
10:00 AM 55 °F 53 °F 89% 30.40 in 3 mi West 2.2 mph - - Fog Light Fog
10:20 AM 55.4 °F 53.6 °F 94% 30.39 in 2.5 mi Variable 2.3 mph - N/A   Mostly Cloudy
10:50 AM 57.2 °F 53.6 °F 88% 30.39 in 3.7 mi West 2.3 mph - N/A   Mostly Cloudy
11:00 AM 56 °F 53 °F 84% 30.41 in 6 mi West 2.2 mph - -   Partly Cloudy
11:20 AM 57.2 °F 53.6 °F 88% 30.39 in 5.6 mi WNW 2.3 mph - N/A   Mostly Cloudy
11:50 AM 59.0 °F 53.6 °F 82% 30.39 in 6.2 mi Variable 2.3 mph - N/A   Scattered Clouds
12:00 PM 60 °F 54 °F 75% 30.40 in 11 mi WSW 2.2 mph - -   Scattered Clouds
12:20 PM 62.6 °F 55.4 °F 77% 30.39 in 6.2 mi Variable 2.3 mph - N/A   Partly Cloudy
1:50 PM 66.2 °F 55.4 °F 68% 30.36 in - Variable 3.5 mph - N/A   Clear
2:00 PM 66 °F 55 °F 60% 30.37 in 16 mi NNW 4.5 mph - -   Partly Cloudy
2:20 PM 66.2 °F 55.4 °F 68% 30.36 in - Variable 3.5 mph - N/A   Clear
2:50 PM 66.2 °F 51.8 °F 60% 30.36 in - NNW 3.5 mph - N/A   Clear
3:00 PM 68 °F 56 °F 55% 30.35 in 19 mi ENE 4.5 mph - -   Scattered Clouds
3:20 PM 68.0 °F 51.8 °F 56% 30.36 in 6.2 mi North 4.6 mph - N/A   Partly Cloudy
3:50 PM 68.0 °F 53.6 °F 60% 30.33 in 6.2 mi NNW 3.5 mph - N/A   Partly Cloudy
4:00 PM 69 °F 54 °F 49% 30.34 in 25 mi North 4.5 mph - -   Scattered Clouds
5:00 PM 69 °F 52 °F 44% 30.33 in 25 mi North 6.7 mph - -   Scattered Clouds
6:00 PM 68 °F 53 °F 49% 30.32 in 28 mi NNE 6.7 mph - -   Scattered Clouds
7:00 PM 65 °F 54 °F 58% 30.32 in 28 mi NNE 6.7 mph - -   Clear
8:00 PM 60 °F 53 °F 72% 30.33 in 28 mi ENE 4.5 mph - -   Clear
9:00 PM 56 °F 52 °F 81% 30.34 in 19 mi North 2.2 mph - -   Clear
10:00 PM 53 °F 51 °F 92% 30.35 in 10 mi Calm Calm - -  
11:00 PM 53 °F 52 °F 93% 30.36 in 14 mi NNW 2.2 mph - -